TimeAKDT,TemperatureF,Dew PointF,Humidity,Sea Level PressureIn,VisibilityMPH,Wind Direction,Wind SpeedMPH,Gust SpeedMPH,PrecipitationIn,Events,Conditions,WindDirDegrees,DateUTC
12:56 AM,73.9,53.1,48,30.06,10.0,West,4.6,-,N/A,,Mostly Cloudy,270,2013-07-29 08:56:00
1:56 AM,72.0,54.0,53,30.08,10.0,SW,12.7,-,N/A,,Overcast,230,2013-07-29 09:56:00
2:56 AM,70.0,55.0,59,30.09,10.0,WSW,9.2,-,0.00,,Mostly Cloudy,240,2013-07-29 10:56:00
3:56 AM,69.1,54.0,58,30.10,10.0,SW,8.1,-,0.00,,Partly Cloudy,230,2013-07-29 11:56:00
4:56 AM,68.0,54.0,61,30.10,10.0,WSW,4.6,-,N/A,,Clear,250,2013-07-29 12:56:00
5:56 AM,64.9,54.0,68,30.11,10.0,WSW,8.1,-,N/A,,Partly Cloudy,240,2013-07-29 13:56:00
6:26 AM,64.4,53.6,68,30.11,10.0,West,4.6,-,N/A,,Mostly Cloudy,270,2013-07-29 14:26:00
6:55 AM,66.2,53.6,64,30.12,10.0,SW,5.8,-,N/A,,Mostly Cloudy,230,2013-07-29 14:55:00
7:57 AM,66.2,53.6,64,30.12,25.0,West,6.9,-,N/A,,Mostly Cloudy,270,2013-07-29 15:57:00
8:55 AM,68.0,53.6,60,30.13,25.0,West,5.8,-,N/A,,Mostly Cloudy,260,2013-07-29 16:55:00
9:55 AM,71.6,53.6,53,30.13,25.0,SW,6.9,-,N/A,,Mostly Cloudy,230,2013-07-29 17:55:00
10:55 AM,73.4,53.6,50,30.13,25.0,WSW,10.4,-,N/A,,Mostly Cloudy,250,2013-07-29 18:55:00
11:58 AM,75.2,51.8,44,30.13,25.0,WSW,13.8,21.9,N/A,,Scattered Clouds,240,2013-07-29 19:58:00
12:58 PM,77.0,53.6,44,30.12,25.0,SW,13.8,-,N/A,,Partly Cloudy,220,2013-07-29 20:58:00
1:55 PM,78.8,51.8,39,30.12,25.0,West,13.8,23.0,N/A,,Partly Cloudy,260,2013-07-29 21:55:00
2:55 PM,80.6,51.8,37,30.11,25.0,SW,13.8,-,N/A,,Partly Cloudy,230,2013-07-29 22:55:00
3:55 PM,78.8,48.2,34,30.10,25.0,WNW,12.7,25.3,N/A,,Scattered Clouds,290,2013-07-29 23:55:00
4:55 PM,80.6,46.4,30,30.09,25.0,West,16.1,23.0,N/A,,Scattered Clouds,280,2013-07-30 00:55:00
5:55 PM,80.6,46.4,30,30.09,25.0,WNW,16.1,-,N/A,,Partly Cloudy,290,2013-07-30 01:55:00
6:55 PM,78.8,48.2,34,30.09,25.0,NW,11.5,-,N/A,,Partly Cloudy,310,2013-07-30 02:55:00
7:55 PM,78.8,48.2,34,30.08,25.0,WNW,11.5,-,N/A,,Partly Cloudy,300,2013-07-30 03:55:00
8:55 PM,75.2,48.2,38,30.09,25.0,West,13.8,-,N/A,,Partly Cloudy,280,2013-07-30 04:55:00
9:55 PM,73.4,50.0,44,30.10,25.0,WNW,5.8,-,N/A,,Partly Cloudy,300,2013-07-30 05:55:00
10:56 PM,70.0,50.0,49,30.10,10.0,West,6.9,-,N/A,,Clear,270,2013-07-30 06:56:00
11:56 PM,64.0,51.1,63,30.11,10.0,Calm,Calm,-,N/A,,Clear,0,2013-07-30 07:56:00